Regional Weather Roundup
Issued by NWS

Home | Current Version | Previous Version | Graphics & Text | Print | Product List | Glossary On
Versions: 1 2 3 4 5 6 7 8 9 10 11 12 13 14 15 16 17 18 19 20 21 22 23 24 25 26 27 28 29 30 31 32 33 34 35 36 37 38 39 40 41 42 43 44 45 46 47 48 49 50
000
ASUS43 KMPX 300401
RWRMN
WEATHER ROUNDUP FOR MINNESOTA
NATIONAL WEATHER SERVICE TWIN CITIES/CHANHASSEN MN
1100 PM CDT THU SEP 29 2016


NOTE: "FAIR" INDICATES FEW OR NO CLOUDS BELOW 12,000 FEET WITH NO
SIGNIFICANT WEATHER AND/OR OBSTRUCTIONS TO VISIBILITY. N/A MEANS
CURRENT SKY AND/OR WEATHER CONDITIONS ARE NOT AVAILABLE.

MNZ060>063-068>070-300500-
   Twin Cities Metro

CITY           SKY/WX    TMP DP  RH WIND       PRES   REMARKS
TWIN CITIES    CLEAR     57  51  80 NE6       30.39S
ST PAUL        CLEAR     57  51  80 CALM      30.40S
CRYSTAL        CLEAR     54  49  83 CALM      30.39S
BLAINE         CLEAR     54  52  94 CALM      30.40S
LAKEVILLE      CLEAR     50  50 100 CALM      30.39S
EDEN PRAIRIE   CLEAR     56  50  80 NE5       30.38S
LAKEVILLE      CLEAR     50  50 100 CALM      30.39S
SOUTH ST PAUL  CLEAR     58  51  77 CALM      30.39S
LAKE ELMO      FAIR      54  52  94 CALM      30.41S
$$
MNZ001>005-007-008-013>017-022>024-027-028-300500-
   Northwest Minnesota

CITY           SKY/WX    TMP DP  RH WIND       PRES   REMARKS
BEMIDJI        CLOUDY    53  47  81 SE5       30.43S
HALLOCK        CLEAR     52  46  82 SE10      30.38S
ROSEAU         CLEAR     50  45  81 SE5       30.42S HAZE
WARROAD        CLEAR     48  45  87 SE6       30.43S
THIEF RVR FALL CLEAR     49  44  83 SE7       30.42R
CROOKSTON      CLEAR     52  46  82 SE9       30.40S
FOSSTON        CLEAR     46  43  87 SE5       30.43R
DETROIT LAKES  CLEAR     52  45  76 SE5       30.42S
MOORHEAD       CLEAR     50  45  81 E6        30.39F
PARK RAPIDS    CLEAR     53  46  77 E6        30.42S
MAHNOMEN       FAIR      49  44  84 SE6       30.41S
$$
MNZ006-009>011-018-025>026-300500-
   North Central Minnesota

CITY           SKY/WX    TMP DP  RH WIND       PRES   REMARKS
BAUDETTE       CLOUDY    54  47  77 SE6       30.44S
FLAG ISLAND    CLEAR     55  48  76 SE13      30.41S
INTL FALLS     CLOUDY    52  46  80 SE3       30.46S
WASKISH        CLOUDY    54  48  82 E5        30.44S
BIG FORK       PTCLDY    52  46  82 CALM      30.45F
LONGVILLE      CLEAR     43  43 100 CALM      30.44R
GRAND RAPIDS   CLEAR     48  46  93 CALM      30.47S
ORR            CLOUDY    50  45  81 CALM      30.45S
COOK           PTCLDY    48  46  93 CALM      30.48S
WALKER         CLOUDY    54  48  82 CALM      30.43S
$$
MNZ012-019>021-037-300500-
   Northeast Minnesota

CITY           SKY/WX    TMP DP  RH WIND       PRES   REMARKS
DULUTH         FOG       50  50 100 E9        30.46S VSB 1
ELY            CLEAR     45  45 100 CALM      30.48S
HIBBING        CLEAR     42  42 100 CALM      30.46S
EVELETH        CLEAR     45  44  96 CALM      30.48S
DULUTH HARBOR  CLOUDY    55  52  88 NE13      30.47S
TWO HARBORS    CLOUDY    54  48  82 E6        30.46S
SILVER BAY     CLOUDY    52  50  93 NE3       30.47S
GRAND MARAIS     N/A     48  47  96 N3        30.49S
G MARAIS ARPRT CLEAR     43  39  87 N5        30.50S FOG
$$
MNZ029>031-032-039>041-046>048-054>057-064-300500-
   West Central Minnesota

CITY           SKY/WX    TMP DP  RH WIND       PRES   REMARKS
FERGUS FALLS   CLEAR     54  46  76 E6        30.42S
MORRIS         CLEAR     48  46  93 E8        30.38S
ALEXANDRIA     CLEAR     49  47  93 E5        30.42R
ELBOW LAKE     FAIR      51  47  87 SE7       30.40S
WADENA         CLEAR     46  45  93 NE5       30.42R
GLENWOOD       CLEAR     48  46  93 NE5       30.41
BENSON         CLEAR     50  45  81 E5        30.39S
ORTONVILLE     CLEAR     52  45  76 CALM      30.38S
MADISON        CLEAR     50  46  87 E5        30.38S
WILLMAR        FAIR      48  46  93 E3        30.41S
$$
MNZ033>034-036-042>043-049>051-058-059-300500-
   Central Minnesota

CITY           SKY/WX    TMP DP  RH WIND       PRES   REMARKS
ST CLOUD       CLEAR     52  50  93 E6        30.41R
SAUK CENTRE    FAIR      50  47  88 E5        30.41S
PAYNESVILLE    CLEAR     46  46 100 CALM      30.41S FOG
AITKIN         CLEAR     48  43  81 CALM      30.43S
PINE RIVER     CLEAR     46  46 100 E5        30.46S
BRAINERD       CLEAR     49  46  90 E5        30.43S
STAPLES        CLEAR     46  45  93 CALM      30.42S
LONG PRAIRIE   FAIR      46  45  93 NE6       30.42R
LITTLE FALLS   CLEAR     50  46  87 E5        30.42S
LITCHFIELD     CLEAR     52  50  93 CALM      30.40S
BUFFALO        CLEAR     49  46  88 CALM      30.41S
MAPLE LAKE     CLEAR     47  47  98 CALM      30.41S
HUTCHINSON     CLEAR     47  46  99 CALM      30.40S
$$
MNZ037-044-045-052-053-300500-
   East Central Minnesota

CITY           SKY/WX    TMP DP  RH WIND       PRES   REMARKS
PRINCETON      CLEAR     54  50  87 NE3       30.41S
MORA           CLEAR     48  45  87 CALM      30.44S
CAMBRIDGE      CLEAR     55  48  76 CALM      30.40S
MOOSE LAKE     CLOUDY    52  50  93 E5        30.43S
HINCKLEY       FAIR      50  48  93 NE3       30.43S
CLOQUET        CLOUDY    52  48  87 E9        30.45F FOG
MCGREGOR       CLEAR     46  45  93 CALM      30.45S
$$
MNZ071>073-080-081-089-090-097-098-300500-
   Southwest Minnesota

CITY           SKY/WX    TMP DP  RH WIND       PRES   REMARKS
MONTEVIDEO     CLEAR     48  46  93 SE3       30.40S
GRANITE FALLS  CLEAR     55  49  82 E3        30.40S
CANBY          CLEAR     47  46  93 CALM      30.40R
MARSHALL       CLEAR     49  46  90 CALM      30.39R
REDWOOD FALLS  CLEAR     53  47  79 E6        30.39R
OLIVIA         CLEAR     52  46  82 E3        30.38S
PIPESTONE      CLEAR     54  46  76 SE5       30.37S
WINDOM         CLEAR     48  46  93 E5        30.38S
WORTHINGTON    CLEAR     48  45  89 E6        30.39R
JACKSON        CLEAR     50  43  76 E6        30.38S
TRACY          CLEAR     53  48  84 SE5       30.38S
$$
MNZ065>067-074>077-082>085-091>093-300500-
   South Central Minnesota

CITY           SKY/WX    TMP DP  RH WIND       PRES   REMARKS
MANKATO        CLEAR     57  51  80 NE3       30.39S
ST JAMES       CLEAR     48  46  93 CALM      30.39S
FAIRMONT       CLEAR     52  47  83 NE3       30.38S
GLENCOE        CLEAR     50  50 100 CALM      30.38F
FARIBAULT      CLEAR     46  45  93 CALM      30.39S
OWATONNA       CLEAR     50  46  87 CALM      30.38S
WASECA         CLEAR     52  48  87 NE6       30.39S
ALBERT LEA     CLEAR     54  48  82 CALM      30.38S
$$
MNZ078>079-086>088-094>096-300500-
   Southeast Minnesota

CITY           SKY/WX    TMP DP  RH WIND       PRES   REMARKS
ROCHESTER      CLEAR     55  50  83 N5        30.38F
RED WING       CLEAR     55  52  88 CALM      30.37S
STANTON        CLEAR     48  47  95 CALM      30.38S
DODGE CENTER   CLEAR     52  48  87 N5        30.38S
WINONA         CLEAR     54  52  94 NW3       30.37S
AUSTIN         CLEAR     52  48  87 CALM      30.37S
PRESTON        CLEAR     55  49  80 N6        30.37S
$$
ABBREVIATIONS USED IN REMARKS
   TC - TEMPERATURES IN CELSIUS
  WCI - WIND CHILL INDEX
   HX - HEAT INDEX
  VSB - VISIBILITY
$$



USA.gov is the U.S. government's official web portal to all federal, state and local government web resources and services.